Terminal Aerodrome Forecast
Issued by NWS

Home | Current Version | Previous Version | Text Only | Print | Product List | Glossary On
Versions: 1 2 3 4 5 6 7 8 9 10 11 12 13 14 15 16 17 18 19 20 21 22 23 24 25 26 27
000
FTUS41 KGYX 022322
TAFRKD
TAF
KRKD 022322Z 0300/0324 20005KT P6SM SKC
     FM031200 20009KT P6SM SKC
     FM031600 19014KT P6SM SCT060
      AMD LTD TO CLD VIS AND WIND=

USA.gov is the U.S. government's official web portal to all federal, state and local government web resources and services.